CAPE
0 0 0 0 0 0 0 0 0 0 0 0 0 0 0 0 0 0 0 0 0 0 0 0 1303 1942 1925 1628 1543 1592 1281 1041 747 382 210 160 25 25 38 33 29 6 102 70
0 0 0 0 0 0 0 0 0 0 0 0 0 0 0 0 0 0 0 0 0 0 0 0 344 1869 1988 1792 1599 1496 1103 1012 760 403 337 95 48 26 30 36 50 23 18 105
0 0 0 0 0 0 0 0 0 0 0 0 0 0 0 0 0 0 0 0 0 0 0 0 0 1636 2001 1791 1631 1261 1168 1088 970 710 247 130 56 15 11 46 75 80 1 64
0 0 0 0 0 0 0 0 0 0 0 0 3 0 0 0 0 0 0 0 0 0 0 0 0 0 1952 1729 1882 1529 1417 1307 925 713 374 162 67 18 19 105 100 98 59 28
0 0 0 0 0 0 0 0 0 0 0 0 0 0 0 0 0 0 0 0 0 0 0 0 0 0 319 2167 2019 1870 1530 1273 946 757 562 239 142 89 93 62 80 110 104 36
0 0 0 0 0 0 1 3 3 0 0 0 0 0 0 13 8 7 0 0 0 0 0 0 0 0 0 1953 2092 1960 1546 1321 1064 1135 795 916 408 152 90 106 190 156 96 106
0 0 0 0 0 3 29 56 0 0 0 0 0 0 0 15 32 56 67 28 52 132 46 35 8 0 0 77 2069 1965 1665 1280 1085 899 1002 1039 418 312 166 101 63 184 206 118
0 0 0 0 16 49 20 36 61 0 0 0 2 46 2 20 2 17 42 70 55 11 0 0 3 9 0 16 292 1647 1591 1360 1166 1265 881 1129 832 332 247 161 69 76 157 296
0 0 6 0 17 7 5 54 62 55 33 5 41 8 37 1 0 1 0 8 6 3 0 0 0 0 0 0 1 16 1114 1390 1094 1391 832 597 592 827 377 245 155 64 78 302
0 0 0 0 3 4 7 38 61 22 0 0 94 21 16 36 32 8 0 3 7 0 0 2 0 0 0 0 0 1 65 521 1172 1561 1014 622 576 484 657 378 240 101 96 183
0 0 0 0 0 0 24 34 69 29 18 18 20 7 0 12 111 34 1 0 0 0 0 0 0 0 0 0 0 0 37 112 669 1063 1163 856 511 526 482 550 432 219 65 37
14 0 0 0 0 0 5 41 35 8 0 0 0 0 0 1 12 27 0 0 0 0 0 0 0 0 0 0 0 0 0 132 164 428 1019 979 702 577 527 713 512 397 298 108
0 0 0 0 0 0 0 0 0 5 0 0 0 0 0 0 0 0 0 0 0 0 0 0 0 0 0 0 0 0 0 0 0 195 440 1066 879 549 475 666 661 600 390 227
0 0 0 0 1 0 0 0 0 0 2 0 0 0 0 0 0 0 0 0 0 0 0 0 0 0 0 0 0 0 0 0 0 8 52 462 1095 813 660 587 524 470 388 430
0 0 0 0 0 0 0 0 0 0 0 0 0 0 0 0 0 0 0 0 0 0 0 0 0 0 0 0 0 0 0 0 0 0 101 162 974 1160 918 772 692 568 562 506
0 0 0 0 0 0 0 0 0 0 0 0 0 0 0 0 0 0 0 0 0 0 0 0 0 0 0 0 0 0 0 0 0 0 100 207 393 1047 1195 1041 926 726 608 562
0 0 0 0 0 0 0 0 0 0 0 0 0 0 0 0 0 0 0 0 0 0 0 0 0 0 0 0 0 0 0 0 0 0 50 222 673 977 856 1139 1012 878 769 871
0 0 0 0 0 0 0 0 0 0 0 0 0 0 0 0 0 0 0 0 0 0 0 0 0 0 0 0 0 0 0 0 0 0 42 349 668 712 665 1037 1103 946 825 806
0 0 0 0 0 0 0 0 0 0 0 0 0 0 0 0 0 0 0 0 0 0 0 0 0 17 14 4 23 2 2 3 5 4 153 370 669 483 571 688 936 950 786 731
0 0 0 0 0 0 0 0 0 0 0 0 0 0 0 0 0 0 0 0 0 0 0 0 0 17 21 48 142 90 44 9 10 8 10 82 267 478 506 549 811 826 699 565
0 0 0 0 0 0 0 0 0 0 0 4 11 0 0 0 0 0 0 0 0 0 0 0 0 4 19 38 67 61 94 23 10 2 12 3 133 124 302 438 721 659 506 401
0 0 0 0 0 0 0 0 0 0 28 27 0 7 0 0 0 0 0 0 0 0 0 0 0 0 0 0 0 51 66 73 71 79 49 139 23 310 390 452 470 339 396 365
0 0 0 0 0 0 0 0 22 52 3 24 0 0 0 0 0 0 0 0 0 0 0 0 0 0 0 0 0 18 25 49 164 52 86 171 232 315 362 278 214 130 156 147
0 0 0 0 0 0 0 15 22 8 11 6 1 0 0 0 0 0 0 0 0 0 0 0 0 0 0 0 0 0 0 0 9 38 145 154 86 80 141 156 114 87 107 74
0 0 0 0 0 0 0 8 9 8 1 0 0 0 0 0 0 0 0 0 0 0 0 0 0 0 0 0 0 0 0 0 1 7 14 20 27 100 179 123 137 96 92 67
0 0 0 0 0 0 0 5 5 11 3 0 0 0 0 0 0 0 0 0 0 0 0 0 0 0 0 0 0 0 0 0 0 0 0 0 5 17 12 3 8 10 15 24
CIN
-0 -0 -0 -0 -0 -0 -0 -0 -0 -0 -0 -0 -0 -0 -0 -0 -0 -0 -0 -0 -0 -0 -0 -0 -19 -36 -18 -22 -14 -5 -5 -13 -14 -45 -73 -37 -148 -102 -66 -116 -98 -21 -38 -109
-0 -0 -0 -0 -0 -0 -0 -0 -0 -0 -0 -0 -0 -0 -0 -0 -0 -0 -0 -0 -0 -0 -0 -0 -33 -23 -0 -18 -17 -0 -10 -14 -13 -48 -54 -55 -26 -149 -81 -93 -125 -147 -96 -54
-0 -0 -0 -0 -0 -0 -0 -0 -0 -0 -0 -0 -0 -0 -0 -0 -0 -0 -0 -0 -0 -0 -0 -0 -0 -23 -9 -0 -2 -14 -8 -14 -5 -10 -75 -88 -82 -80 -163 -74 -154 -203 -51 -45
-0 -0 -0 -0 -0 -0 -0 -0 -0 -0 -0 -0 -3 -0 -0 -0 -0 -0 -0 -0 -0 -0 -0 -0 -0 -0 -7 -5 -0 -4 -1 -1 -0 -8 -83 -108 -127 -111 -146 -139 -69 -100 -136 -79
-0 -0 -0 -0 -0 -0 -0 -0 -0 -0 -0 -0 -0 -0 -0 -0 -0 -0 -0 -0 -0 -0 -0 -0 -0 -0 -2 -19 -4 -1 -9 -1 -0 -12 -49 -84 -59 -86 -91 -71 -67 -137 -157 -109
-0 -0 -0 -0 -0 -0 -0 -0 -0 -0 -0 -0 -1 -0 -0 -1 -1 -0 -0 -0 -0 -0 -0 -0 -0 -0 -0 -32 -17 -24 -21 -1 -0 -0 -23 -0 -15 -17 -44 -108 -26 -104 -123 -117
-0 -0 -0 -0 -0 -5 -7 -0 -0 -0 -0 -0 -0 -0 -0 -8 -71 -62 -43 -45 -42 -75 -58 -56 -27 -0 -0 -20 -26 -29 -15 -0 -0 -7 -2 -0 -17 -25 -27 -46 -11 -58 -50 -74
-0 -0 -0 -0 -0 -2 -15 -3 -0 -0 -0 -0 -3 -0 -8 -42 -3 -81 -124 -99 -111 -65 -0 -6 -21 -64 -0 -87 -53 -16 -17 -10 -2 -0 -2 -0 -0 -20 -42 -20 -25 -27 -38 -10
-0 -0 -1 -2 -0 -8 -12 -0 -1 -1 -1 -1 -12 -4 -11 -112 -0 -36 -0 -23 -33 -17 -0 -0 -0 -0 -0 -0 -74 -0 -3 -0 -5 -0 -5 -17 -11 -0 -17 -24 -5 -83 -89 -24
-0 -0 -0 -0 -0 -3 -39 -0 -3 -7 -0 -0 -3 -4 -9 -8 -21 -11 -50 -1 -2 -0 -0 -0 -0 -0 -0 -0 -0 -0 -107 -27 -2 -0 -0 -19 -16 -10 -0 -3 -2 -18 -79 -28
-0 -0 -0 -0 -1 -3 -10 -5 -0 -1 -1 -0 -2 -4 -0 -12 -4 -7 -4 -0 -0 -0 -0 -0 -0 -0 -0 -0 -0 -63 -113 -101 -4 -2 -0 -2 -19 -20 -11 -1 -0 -18 -111 -153
-0 -0 -0 -0 -0 -0 -4 -1 -0 -0 -0 -0 -0 -0 -0 -3 -33 -22 -0 -0 -0 -0 -0 -0 -0 -0 -0 -0 -0 -0 -2 -76 -78 -5 -3 -0 -7 -36 -12 -1 -0 -19 -20 -86
-0 -0 -0 -0 -1 -0 -1 -0 -0 -2 -1 -0 -0 -0 -0 -0 -0 -0 -3 -43 -0 -0 -0 -0 -0 -0 -0 -0 -0 -0 -0 -0 -0 -99 -41 -4 -1 -21 -50 -7 -15 -1 -12 -34
-0 -0 -0 -0 -3 -0 -0 -0 -0 -0 -1 -0 -0 -0 -0 -0 -0 -0 -0 -0 -0 -0 -0 -0 -0 -0 -0 -0 -0 -0 -0 -0 -0 -302 -244 -82 -2 -6 -18 -24 -15 -22 -14 -10
-0 -0 -0 -0 -0 -0 -0 -0 -0 -0 -0 -0 -0 -0 -0 -0 -0 -0 -0 -0 -0 -0 -0 -0 -0 -0 -0 -0 -0 -0 -0 -0 -0 -18 -191 -203 -21 -9 -3 -7 -9 -9 -5 -1
-0 -0 -0 -0 -0 -0 -0 -0 -0 -0 -0 -0 -0 -0 -0 -0 -0 -0 -0 -0 -0 -0 -0 -0 -0 -0 -0 -0 -0 -0 -0 -0 -0 -0 -199 -160 -83 -11 -9 -2 -1 -1 -7 -12
-0 -0 -0 -0 -0 -0 -0 -0 -0 -0 -0 -0 -0 -0 -0 -0 -0 -0 -0 -0 -0 -0 -0 -0 -0 -0 -0 -0 -0 -0 -0 -0 -0 -0 -218 -112 -16 -5 -8 -10 -2 -0 -1 -2
-0 -0 -0 -0 -0 -0 -0 -0 -0 -0 -0 -0 -0 -0 -0 -0 -0 -0 -0 -0 -0 -0 -0 -0 -0 -0 -0 -0 -0 -0 -0 -0 -0 -15 -204 -56 -21 -22 -12 -7 -3 -0 -1 -1
-0 -0 -0 -0 -0 -0 -0 -0 -0 -0 -0 -0 -0 -0 -0 -0 -0 -0 -0 -0 -0 -0 -0 -0 -0 -37 -41 -0 -18 -0 -7 -6 -6 -2 -82 -27 -6 -32 -39 -16 -6 -3 -0 -1
-0 -0 -0 -0 -0 -0 -0 -0 -0 -0 -0 -0 -0 -0 -0 -0 -0 -0 -0 -0 -0 -0 -0 -0 -0 -7 -22 -14 -0 -3 -8 -0 -1 -3 -19 -107 -55 -27 -26 -7 -5 -6 -0 -16
-0 -0 -0 -0 -0 -0 -0 -0 -0 -0 -0 -1 -4 -0 -0 -0 -0 -0 -0 -0 -0 -0 -0 -0 -0 -5 -1 -22 -5 -4 -0 -7 -1 -0 -0 -1 -40 -80 -42 -16 -0 -1 -0 -11
-0 -0 -0 -0 -0 -0 -0 -0 -0 -0 -21 -0 -0 -0 -0 -0 -0 -0 -0 -0 -0 -0 -0 -0 -0 -0 -0 -0 -0 -8 -1 -0 -0 -3 -5 -0 -7 -0 -0 -0 -0 -0 -0 -0
-0 -0 -0 -0 -0 -0 -0 -0 -40 -10 -0 -0 -0 -0 -0 -0 -0 -0 -0 -0 -0 -0 -0 -0 -0 -0 -0 -0 -0 -4 -18 -5 -0 -0 -0 -0 -0 -0 -0 -0 -0 -2 -0 -0
-0 -0 -0 -0 -0 -0 -0 -0 -0 -0 -0 -0 -0 -0 -0 -0 -0 -0 -0 -0 -0 -0 -0 -0 -0 -0 -0 -0 -0 -0 -0 -0 -35 -16 -1 -0 -5 -16 -1 -4 -0 -10 -2 -4
-0 -0 -0 -0 -0 -0 -0 -1 -0 -0 -0 -0 -0 -0 -0 -0 -0 -0 -0 -0 -0 -0 -0 -0 -0 -0 -0 -0 -0 -0 -0 -0 -2 -2 -52 -39 -33 -5 -0 -3 -0 -0 -2 -1
-0 -0 -0 -0 -0 -0 -0 -0 -0 -0 -0 -0 -0 -0 -0 -0 -0 -0 -0 -0 -0 -0 -0 -0 -0 -0 -0 -0 -0 -0 -0 -0 -0 -0 -0 -0 -10 -31 -25 -15 -10 -13 -20 -6
Wind_Speed
nan nan nan nan nan nan nan nan nan nan nan nan nan nan nan nan nan nan nan nan nan nan nan nan 44 40 35 34 33 32 35 34 33 32 38 36 nan nan nan nan nan nan 35 nan
nan nan nan nan nan nan nan nan nan nan nan nan nan nan nan nan nan nan nan nan nan nan nan nan 42 49 35 36 35 33 34 35 34 31 36 nan nan nan nan nan nan nan nan 34
nan nan nan nan nan nan nan nan nan nan nan nan nan nan nan nan nan nan nan nan nan nan nan nan nan 51 38 36 35 34 31 35 36 40 36 41 nan nan nan nan nan nan nan nan
nan nan nan nan nan nan nan nan nan nan nan nan nan nan nan nan nan nan nan nan nan nan nan nan nan nan 41 35 37 34 32 35 37 44 36 40 nan nan nan 50 49 nan nan nan
nan nan nan nan nan nan nan nan nan nan nan nan nan nan nan nan nan nan nan nan nan nan nan nan nan nan 42 36 36 34 35 34 40 41 37 36 37 nan nan nan nan 55 44 nan
nan nan nan nan nan nan nan nan nan nan nan nan nan nan nan nan nan nan nan nan nan nan nan nan nan nan nan 43 38 38 35 38 41 39 36 34 31 28 nan 41 31 36 nan 39
nan nan nan nan nan nan nan nan nan nan nan nan nan nan nan nan nan nan nan nan nan 73 nan nan nan nan nan nan 45 38 40 38 40 38 36 32 29 27 26 29 nan 24 27 47
nan nan nan nan nan nan nan nan nan nan nan nan nan nan nan nan nan nan nan nan nan nan nan nan nan nan nan nan 67 43 39 40 38 37 36 32 29 27 28 25 nan nan 28 28
nan nan nan nan nan nan nan nan nan nan nan nan nan nan nan nan nan nan nan nan nan nan nan nan nan nan nan nan nan nan 41 38 36 33 35 30 28 23 23 21 19 nan nan 33
nan nan nan nan nan nan nan nan nan nan nan nan nan nan nan nan nan nan nan nan nan nan nan nan nan nan nan nan nan nan nan 46 37 35 34 34 28 24 23 25 19 16 nan 27
nan nan nan nan nan nan nan nan nan nan nan nan nan nan nan nan 70 nan nan nan nan nan nan nan nan nan nan nan nan nan nan 52 46 35 34 32 29 24 25 27 22 18 nan nan
nan nan nan nan nan nan nan nan nan nan nan nan nan nan nan nan nan nan nan nan nan nan nan nan nan nan nan nan nan nan nan 59 53 46 35 31 28 26 21 24 27 24 22 22
nan nan nan nan nan nan nan nan nan nan nan nan nan nan nan nan nan nan nan nan nan nan nan nan nan nan nan nan nan nan nan nan nan 49 41 32 31 27 24 20 21 22 24 24
nan nan nan nan nan nan nan nan nan nan nan nan nan nan nan nan nan nan nan nan nan nan nan nan nan nan nan nan nan nan nan nan nan nan nan 35 33 31 26 23 20 22 21 27
nan nan nan nan nan nan nan nan nan nan nan nan nan nan nan nan nan nan nan nan nan nan nan nan nan nan nan nan nan nan nan nan nan nan 45 37 37 35 31 24 23 25 24 23
nan nan nan nan nan nan nan nan nan nan nan nan nan nan nan nan nan nan nan nan nan nan nan nan nan nan nan nan nan nan nan nan nan nan 48 46 36 39 37 31 28 27 26 25
nan nan nan nan nan nan nan nan nan nan nan nan nan nan nan nan nan nan nan nan nan nan nan nan nan nan nan nan nan nan nan nan nan nan nan 45 38 40 39 36 29 28 28 28
nan nan nan nan nan nan nan nan nan nan nan nan nan nan nan nan nan nan nan nan nan nan nan nan nan nan nan nan nan nan nan nan nan nan nan 58 56 43 42 40 34 33 33 30
nan nan nan nan nan nan nan nan nan nan nan nan nan nan nan nan nan nan nan nan nan nan nan nan nan nan nan nan nan nan nan nan nan nan 60 58 57 57 50 44 43 42 42 37
nan nan nan nan nan nan nan nan nan nan nan nan nan nan nan nan nan nan nan nan nan nan nan nan nan nan nan nan 46 nan nan nan nan nan nan nan 63 60 58 53 48 48 47 44
nan nan nan nan nan nan nan nan nan nan nan nan nan nan nan nan nan nan nan nan nan nan nan nan nan nan nan nan nan nan nan nan nan nan nan nan 65 60 56 54 56 53 52 51
nan nan nan nan nan nan nan nan nan nan nan nan nan nan nan nan nan nan nan nan nan nan nan nan nan nan nan nan nan nan nan nan nan nan nan 68 nan 69 68 64 62 59 58 56
nan nan nan nan nan nan nan nan nan nan nan nan nan nan nan nan nan nan nan nan nan nan nan nan nan nan nan nan nan nan nan nan 34 nan nan 58 64 69 72 75 77 75 74 67
nan nan nan nan nan nan nan nan nan nan nan nan nan nan nan nan nan nan nan nan nan nan nan nan nan nan nan nan nan nan nan nan nan nan 40 40 nan nan 52 59 66 nan 69 nan
nan nan nan nan nan nan nan nan nan nan nan nan nan nan nan nan nan nan nan nan nan nan nan nan nan nan nan nan nan nan nan nan nan nan nan nan nan 39 40 42 42 nan nan nan
nan nan nan nan nan nan nan nan nan nan nan nan nan nan nan nan nan nan nan nan nan nan nan nan nan nan nan nan nan nan nan nan nan nan nan nan nan nan nan nan nan nan nan nan
Wind_Direction
nan nan nan nan nan nan nan nan nan nan nan nan nan nan nan nan nan nan nan nan nan nan nan nan 261 264 267 261 250 258 264 259 259 246 243 243 nan nan nan nan nan nan 246 nan
nan nan nan nan nan nan nan nan nan nan nan nan nan nan nan nan nan nan nan nan nan nan nan nan 256 262 262 266 262 253 256 262 262 255 248 nan nan nan nan nan nan nan nan 249
nan nan nan nan nan nan nan nan nan nan nan nan nan nan nan nan nan nan nan nan nan nan nan nan nan 258 258 261 261 259 257 259 257 257 252 257 nan nan nan nan nan nan nan nan
nan nan nan nan nan nan nan nan nan nan nan nan nan nan nan nan nan nan nan nan nan nan nan nan nan nan 258 254 260 260 254 259 259 264 263 273 nan nan nan 248 244 nan nan nan
nan nan nan nan nan nan nan nan nan nan nan nan nan nan nan nan nan nan nan nan nan nan nan nan nan nan 251 254 253 254 253 255 256 263 267 266 268 nan nan nan nan 252 250 nan
nan nan nan nan nan nan nan nan nan nan nan nan nan nan nan nan nan nan nan nan nan nan nan nan nan nan nan 254 252 253 251 252 254 260 268 274 278 273 nan 290 257 245 nan 237
nan nan nan nan nan nan nan nan nan nan nan nan nan nan nan nan nan nan nan nan nan 227 nan nan nan nan nan nan 248 250 256 254 260 267 273 276 279 278 279 274 nan 262 238 239
nan nan nan nan nan nan nan nan nan nan nan nan nan nan nan nan nan nan nan nan nan nan nan nan nan nan nan nan 225 242 248 249 256 261 269 271 276 267 267 272 nan nan 299 309
nan nan nan nan nan nan nan nan nan nan nan nan nan nan nan nan nan nan nan nan nan nan nan nan nan nan nan nan nan nan 234 246 251 255 260 267 270 276 274 282 273 nan nan 294
nan nan nan nan nan nan nan nan nan nan nan nan nan nan nan nan nan nan nan nan nan nan nan nan nan nan nan nan nan nan nan 233 245 249 252 260 262 267 269 273 284 284 nan 272
nan nan nan nan nan nan nan nan nan nan nan nan nan nan nan nan 201 nan nan nan nan nan nan nan nan nan nan nan nan nan nan 220 231 251 254 261 268 268 270 275 282 283 nan nan
nan nan nan nan nan nan nan nan nan nan nan nan nan nan nan nan nan nan nan nan nan nan nan nan nan nan nan nan nan nan nan 216 219 231 248 257 265 271 266 269 277 280 283 284
nan nan nan nan nan nan nan nan nan nan nan nan nan nan nan nan nan nan nan nan nan nan nan nan nan nan nan nan nan nan nan nan nan 221 234 252 259 264 273 267 268 278 277 284
nan nan nan nan nan nan nan nan nan nan nan nan nan nan nan nan nan nan nan nan nan nan nan nan nan nan nan nan nan nan nan nan nan nan nan 237 257 263 265 267 268 273 274 271
nan nan nan nan nan nan nan nan nan nan nan nan nan nan nan nan nan nan nan nan nan nan nan nan nan nan nan nan nan nan nan nan nan nan 221 225 244 260 262 265 265 268 271 272
nan nan nan nan nan nan nan nan nan nan nan nan nan nan nan nan nan nan nan nan nan nan nan nan nan nan nan nan nan nan nan nan nan nan 219 221 248 252 260 261 264 269 276 277
nan nan nan nan nan nan nan nan nan nan nan nan nan nan nan nan nan nan nan nan nan nan nan nan nan nan nan nan nan nan nan nan nan nan nan 221 240 249 251 261 264 267 270 270
nan nan nan nan nan nan nan nan nan nan nan nan nan nan nan nan nan nan nan nan nan nan nan nan nan nan nan nan nan nan nan nan nan nan nan 225 225 246 251 254 265 266 263 265
nan nan nan nan nan nan nan nan nan nan nan nan nan nan nan nan nan nan nan nan nan nan nan nan nan nan nan nan nan nan nan nan nan nan 224 224 228 231 235 255 258 261 260 258
nan nan nan nan nan nan nan nan nan nan nan nan nan nan nan nan nan nan nan nan nan nan nan nan nan nan nan nan 211 nan nan nan nan nan nan nan 234 236 238 239 256 257 259 263
nan nan nan nan nan nan nan nan nan nan nan nan nan nan nan nan nan nan nan nan nan nan nan nan nan nan nan nan nan nan nan nan nan nan nan nan 236 238 242 242 241 255 258 257
nan nan nan nan nan nan nan nan nan nan nan nan nan nan nan nan nan nan nan nan nan nan nan nan nan nan nan nan nan nan nan nan nan nan nan 237 nan 238 238 241 245 247 255 260
nan nan nan nan nan nan nan nan nan nan nan nan nan nan nan nan nan nan nan nan nan nan nan nan nan nan nan nan nan nan nan nan 213 nan nan 226 228 233 236 240 243 248 246 247
nan nan nan nan nan nan nan nan nan nan nan nan nan nan nan nan nan nan nan nan nan nan nan nan nan nan nan nan nan nan nan nan nan nan 218 221 nan nan 236 242 241 nan 244 nan
nan nan nan nan nan nan nan nan nan nan nan nan nan nan nan nan nan nan nan nan nan nan nan nan nan nan nan nan nan nan nan nan nan nan nan nan nan 231 232 239 245 nan nan nan
nan nan nan nan nan nan nan nan nan nan nan nan nan nan nan nan nan nan nan nan nan nan nan nan nan nan nan nan nan nan nan nan nan nan nan nan nan nan nan nan nan nan nan nan